Satellite-Ground Cal/Val Site Overpasses Predictions

Prediction of Satellite NPP Overpassing Cal/Val Site: Antarctic Dome C

Ground Cal/Val Site Location: Latitude: -75.10, Longitude: 123.35; Satellite-Ground Site NADIR distance within 100 km.

Table of predicted overpasses for the next 14.0 days since TLE Epoch: 7/2/2013
Interval Starting Time Ending Time Minimum Distance Time Minimum Distance (km)
1 07/02/2013 15:00:48 07/02/2013 15:01:11 07/02/2013 15:01:00 60.70
2 07/03/2013 14:41:58 07/03/2013 14:42:23 07/03/2013 14:42:10 48.57
3 07/04/2013 07:43:39 07/04/2013 07:44:00 07/04/2013 07:43:49 68.18
4 07/05/2013 07:24:46 07/05/2013 07:25:13 07/05/2013 07:24:59 39.83
5 07/07/2013 15:07:13 07/07/2013 15:07:18 07/07/2013 15:07:15 97.94
6 07/08/2013 14:48:11 07/08/2013 14:48:40 07/08/2013 14:48:25 13.47
7 07/10/2013 07:30:59 07/10/2013 07:31:29 07/10/2013 07:31:14 3.74
8 07/13/2013 14:54:25 07/13/2013 14:54:53 07/13/2013 14:54:39 22.61
9 07/14/2013 14:35:43 07/14/2013 14:35:58 07/14/2013 14:35:50 84.40


NCC Satellite Cal/Val Overpasses Prediction Service
